COSMOS 1812             
1 17295U 87003A   15135.81395829  .00004453  00000-0  25755-3 0  9995
2 17295  82.5147 174.8799 0002035 226.5962 133.5099 15.12042874543499
SL-14 R/B               
1 17567U 87024B   15135.82670909  .00000582  00000-0  67835-4 0  9991
2 17567  82.5302 193.3729 0018882 348.8169  11.2623 14.83427745523288
COSMOS 1833             
1 17589U 87027A   15135.86812083  .00000200  00000-0  13349-3 0  9990
2 17589  70.9132 348.7870 0013320  20.3118  65.7304 14.12831994452496
SL-16 R/B               
1 17590U 87027B   15135.80366766 -.00000014  00000-0  16815-4 0  9994
2 17590  71.0030 317.4077 0004481   1.3484 358.7651 14.16695866456003
SL-14 R/B               
1 17912U 87038B   15135.83688205  .00000613  00000-0  72896-4 0  9997
2 17912  82.5044  46.4724 0019302 220.8161 139.1609 14.82708106514609
COSMOS 1844             
1 17973U 87041A   15135.43436193 -.00000050  00000-0 -59593-6 0  9999
2 17973  70.8979  83.1552 0031869 195.4663 277.0241 14.13986243445180
SL-14 R/B               
1 18153U 87055B   15136.00788670  .00000721  00000-0  85550-4 0  9992
2 18153  82.4996 100.8910 0023314  78.0967 282.2860 14.82951584505248
COSMOS 1867             
1 18187U 87060A   15136.18410087  .00000010  00000-0  41560-4 0  9992
2 18187  65.0103 204.1029 0015387 281.0337  78.9016 14.31055564454815
SL-14 R/B               
1 18749U 88001B   15135.96001369  .00000646  00000-0  76728-4 0  9995
2 18749  82.5122 299.9910 0017576 307.8171 166.6050 14.82885951477354
COSMOS 1933             
1 18958U 88020A   15136.48930208  .00003459  00000-0  26092-3 0  9992
2 18958  82.5278 119.2855 0012072   4.3575 355.7753 15.02106795476987
SL-3 R/B                
1 19046U 88032B   15135.70940286  .00003054  00000-0  23939-3 0  9993
2 19046  97.6169 188.8957 0041462  53.4975 307.0057 15.01046038458058
SL-16 R/B               
1 19120U 88039B   15136.14956995 -.00000074  00000-0 -12171-4 0  9994
2 19120  71.0130 137.1029 0024174 277.1756  82.6620 14.19104410398136
COSMOS 1953             
1 19210U 88050A   15136.46231454  .00002662  00000-0  19119-3 0  9999
2 19210  82.5210  52.1617 0013395 346.0823  14.0031 15.03850356463145
SL-8 R/B                
1 19257U 88053B   15135.82031329  .00000345  00000-0  12459-3 0  9997
2 19257  74.0486 179.7611 0021760 260.6453 221.1360 14.37212296409093
COSMOS 1975             
1 19573U 88093A   15135.80358103  .00003253  00000-0  24203-3 0  9993
2 19573  82.5227   3.3234 0015320  22.0140 338.1740 15.02570106445105
SL-14 R/B               
1 19574U 88093B   15136.50670782  .00000654  00000-0  77258-4 0  9993
2 19574  82.5301 138.0314 0023294 109.4044   4.0619 14.82992136436401
SL-16 R/B               
1 19650U 88102B   15136.14077244  .00000099  00000-0  74851-4 0  9992
2 19650  70.9992 179.5134 0016540 264.4980  95.4256 14.15720558367991
INTERCOSMOS 24          
1 20261U 89080A   15136.53257055  .00001335  00000-0  39015-3 0  9997
2 20261  82.5881 143.9336 1207387  55.1435 315.7287 12.55479143170243
SL-14 R/B               
1 20262U 89080C   15135.81763571  .00000445  00000-0  13181-3 0  9990
2 20262  82.5939 184.9370 1237847 196.6491 159.0255 12.48668455166436
DELTA 1 R/B             
1 20323U 89089B   15135.80271399  .00000431  00000-0  12189-3 0  9990
2 20323  97.0957 193.8018 0071005 323.6271  36.0111 14.47978467344242
DELTA 2 R/B(1)          
1 20453U 90008B   15136.13969023  .00006752  00000-0  40660-3 0  9999
2 20453  35.6284  20.8840 0307226 319.3397  38.4745 14.78463996334997
COSMOS 2058             
1 20465U 90010A   15135.79781294  .00002664  00000-0  23241-3 0  9992
2 20465  82.4907 261.3097 0015440 349.8149  10.2758 14.96400301371124
SL-14 R/B               
1 20466U 90010B   15135.80775215  .00000572  00000-0  70528-4 0  9998
2 20466  82.5042   6.7787 0019808 329.3898  30.6158 14.81071135364494
SL-14 R/B               
1 20511U 90018B   15136.54208072  .00000620  00000-0  79171-4 0  9998
2 20511  82.5211 304.2332 0019112  93.6303 326.8645 14.79738494359271
HST                     
1 20580U 90037B   15136.00705194  .00003696  00000-0  22699-3 0  9991
2 20580  28.4714   6.3213 0002727 251.1911 242.4960 15.07364690174950
SL-16 R/B               
1 20625U 90046B   15135.96892461  .00000136  00000-0  95292-4 0  9995
2 20625  70.9995 310.9211 0014751 195.1707 329.3522 14.14578246289907
COSMOS 2084             
1 20663U 90055A   15136.46830293  .00001714  00000-0  18475-3 0  9998
2 20663  62.7962 251.6469 0074548   6.9446 353.2660 14.90427058346076
SL-6 R/B(2)             
1 20666U 90055D   15136.45539341  .00001788  00000-0  18335-3 0  9996
2 20666  62.7854 172.8357 0098498  31.5948 329.1006 14.90827456347411
SL-8 R/B                
1 20775U 90078B   15136.01559649  .00015083  00000-0  78835-3 0  9991
2 20775  82.9290 311.0313 0616177 163.2923 320.3445 14.24050411239860
SL-8 R/B                
1 21088U 91006B   15135.39229433  .00000099  00000-0  85411-4 0  9996
2 21088  82.9444 227.9923 0021213 299.9184 131.4071 13.76989469220482
OKEAN-3                 
1 21397U 91039A   15135.78070443  .00002508  00000-0  24741-3 0  9998
2 21397  82.5201 143.1501 0016524 269.0395  90.8931 14.91537924295943
COSMOS 2151             
1 21422U 91042A   15135.83797485  .00001852  00000-0  18405-3 0  9990
2 21422  82.5020 252.5349 0013465 327.4720  32.5668 14.91143862294716
SL-14 R/B               
1 21423U 91042B   15135.96291814  .00000608  00000-0  78194-4 0  9990
2 21423  82.4920 314.5575 0016597 226.7818 133.2009 14.79493428289728
ERS-1                   
1 21574U 91050A   15136.53757110  .00000814  00000-0  28534-3 0  9997
2 21574  98.3645  89.2109 0034532  75.5980  54.6994 14.37266046248028
ARIANE 40 R/B           
1 21610U 91050F   15135.72505188  .00000539  00000-0  18340-3 0  9992
2 21610  98.7065 171.9956 0004295  71.2447  39.3607 14.40606806250189
INTERCOSMOS 25          
1 21819U 91086A   15135.62652343  .00001448  00000-0  28620-3 0  9999
2 21819  82.5557 161.8600 1528200 270.5524  72.1309 12.03586328 20372
SL-14 R/B               
1 21820U 91086B   15136.54003460  .00000951  00000-0  18345-3 0  9994
2 21820  82.5631 208.2301 1579098  67.6995 308.3592 11.92914991 15830
SL-8 R/B                
1 21876U 92008B   15136.11469955  .00000035  00000-0  20622-4 0  9993
2 21876  82.9250 324.3095 0034920   6.6653 132.6532 13.75553647166474
SL-8 R/B                
1 21938U 92020B   15135.86411262  .00000068  00000-0  54618-4 0  9993
2 21938  82.9319 207.1432 0029873 159.3156 324.6921 13.75219419158378
SL-16 R/B               
1 22220U 92076B   15136.53316245 -.00000091  00000-0 -21552-4 0  9998
2 22220  71.0005 224.5253 0013223 345.1687 103.3050 14.16364585162780
SL-16 R/B               
1 22285U 92093B   15135.82269247  .00000080  00000-0  66103-4 0  9995
2 22285  71.0233  13.5949 0005707 230.4764 129.5855 14.14970658154553
COSMOS 2228             
1 22286U 92094A   15135.76108157  .00001981  00000-0  21811-3 0  9999
2 22286  82.5230  13.5543 0022035 131.6848 228.6260 14.86918495209019
SL-16 R/B               
1 22566U 93016B   15136.53686557 -.00000231  00000-0 -94873-4 0  9994
2 22566  71.0084 227.7042 0011885 223.7854 136.2327 14.14900645143399
COSMOS 2242             
1 22626U 93024A   15136.32227879  .00001900  00000-0  20908-3 0  9994
2 22626  82.5250  40.6731 0020564 129.0047 231.3005 14.86942719192752
SL-16 R/B               
1 22803U 93059B   15135.83894436 -.00000058  00000-0 -48690-5 0  9998
2 22803  70.9911  57.9187 0015159 111.1417 249.1328 14.16710902120168
ARIANE 40 R/B           
1 22830U 93061H   15135.81955793  .00000381  00000-0  16110-3 0  9990
2 22830  98.8622 123.0671 0010962   3.3913  58.7653 14.31340293129049
COSMOS 2278             
1 23087U 94023A   15136.47358322  .00000398  00000-0  23577-3 0  9995
2 23087  71.0510 152.9848 0010383 292.6013 219.1834 14.13665676 86705
SL-16 R/B               
1 23088U 94023B   15136.30734778  .00000227  00000-0  14281-3 0  9994
2 23088  71.0004  83.1974 0003979 212.3545 147.7333 14.14621005 87655
SL-16 R/B               
1 23343U 94074B   15136.13184480  .00000610  00000-0  95308-4 0  9990
2 23343  98.2201 151.0161 0006982   8.7036  31.3864 14.76512224104221
SL-16 R/B               
1 23405U 94077B   15136.32024951 -.00000203  00000-0 -79841-4 0  9993
2 23405  70.9844  19.2911 0002233 340.4881  19.6156 14.15155637 57580
